Location: Binningen
(47.7924°N, 8.7261°E)
Time: 04:47:09
(UTC+00:00)

USA 245 - Pass Details

Date: 17 May 2021
Orbit: 265 x 982 km, 97.9° (Epoch: 13 June)

Event Time Altitude Azimuth Distance (km) Brightness Sun altitude
Exits shadow 20:00:56 15° 121° (ESE) 884 3.8 -9.1°
Maximum altitude 20:02:21 26° 69° (ENE) 609 3.3 -9.3°
Drops below altitude 10° 20:04:31 10° 8° (N) 1,206 5.6 -9.5°
Sets 20:06:40 0° 356° (N) 2,129 7.2 -9.8°
